Location: Unspecified
(0.0000°N, 0.0000°E)
Time: 06:20:10
(UTC+01:00)

Vanguard 1 Rocket - Visible Passes

Search period start: 28 February 2015 00:00
Search period end: 10 March 2015 00:00
Orbit: 656 x 4223 km, 34.3° (Epoch: 27 February)

Date Brightness Start Highest point End Pass type
(mag) Time Alt. Az. Time Alt. Az. Time Alt. Az.
28 Feb 10.7 02:47:51 46° SSE 02:47:51 46° SSE 02:59:23 10° SE visible
28 Feb 10.9 05:05:09 22° WSW 05:12:26 25° SSW 05:24:18 10° SSE visible
28 Feb 11.0 20:07:10 10° N 20:13:56 14° NNE 20:23:42 10° NE visible
28 Feb 10.8 22:30:48 10° NNW 22:41:00 34° N 22:41:00 34° N visible
01 Mar 11.2 01:40:44 27° SE 01:40:44 27° SE 01:47:03 10° SE visible
01 Mar 10.7 03:58:01 39° SSW 03:58:01 39° SSW 04:13:58 10° SSE visible
01 Mar 11.1 06:25:11 10° SW 06:31:49 12° SSW 06:36:13 10° S visible
01 Mar 10.8 21:20:07 10° NNW 21:33:32 29° NNE 21:34:08 29° NE visible
01 Mar 11.1 23:45:44 10° NW 00:33:34 10° ESE 23:51:28 26° NW visible
02 Mar 10.8 02:50:51 43° S 02:50:51 43° S 03:02:44 10° SE visible
02 Mar 11.1 05:08:09 17° SW 05:16:56 21° SSW 05:27:38 10° SSE visible
02 Mar 10.9 20:10:30 10° N 20:18:47 17° NNE 20:27:19 14° NE visible
02 Mar 10.6 22:34:06 10° NW 22:44:38 40° N 22:44:38 40° N visible
03 Mar 11.2 01:43:39 28° SE 01:43:39 28° SE 01:50:31 10° SE visible
03 Mar 10.9 04:00:56 33° SW 04:01:39 33° SSW 04:17:17 10° SSE visible
03 Mar 11.2 06:33:04 10° SSW 06:36:56 11° SSW 06:39:32 10° S visible
03 Mar 10.6 21:23:23 10° NNW 21:37:37 35° NE 21:37:52 35° NE visible
03 Mar 11.0 23:49:12 10° NW 00:36:24 12° SE 00:37:06 10° SE visible
04 Mar 10.9 02:53:41 39° S 02:53:41 39° S 03:06:01 10° SE visible
04 Mar 11.2 05:10:58 13° SW 05:21:46 18° SSW 05:31:10 10° SSE visible
04 Mar 10.7 20:13:41 10° N 20:23:19 21° NNE 20:31:09 18° ENE visible
04 Mar 10.5 22:37:27 10° NW 22:48:29 47° NNW 22:48:29 47° NNW visible
05 Mar 11.2 01:46:24 29° SSE 01:46:24 29° SSE 01:53:51 10° SE visible
05 Mar 11.1 04:03:41 27° SW 04:06:04 27° SSW 04:20:40 10° SSE visible
05 Mar 11.2 06:39:14 10° SSW 06:42:13 10° S 06:44:25 10° S visible
05 Mar 10.4 21:26:39 10° NNW 21:41:25 42° NE 21:41:50 42° NE visible
05 Mar 11.0 23:52:50 10° NW 00:39:06 13° SE 00:40:36 10° SE visible
06 Mar 11.0 02:56:22 35° S 02:56:22 35° S 03:09:18 10° SSE visible
06 Mar 11.3 05:14:53 10° SW 05:26:52 16° SSW 05:35:09 10° SSE visible
06 Mar 10.6 20:16:49 10° NNW 20:27:31 26° NE 20:35:15 22° ENE visible
06 Mar 10.3 22:40:53 10° NW 22:52:37 54° NNW 22:52:37 54° NNW visible
07 Mar 11.2 01:49:02 28° SSE 01:49:02 28° SSE 01:57:06 10° SE visible
07 Mar 11.2 04:06:18 22° SW 04:10:49 23° SSW 04:24:15 10° SSE visible
07 Mar 11.2 06:42:54 10° SSW 06:47:32 11° S 06:51:18 10° SSE visible
07 Mar 10.2 21:29:58 10° NNW 21:44:59 52° NE 21:46:06 51° NE visible
07 Mar 11.0 23:56:41 10° WNW 00:41:40 15° SE 00:43:56 10° SE visible
08 Mar 11.1 02:58:57 31° S 02:58:57 31° S 03:12:39 10° SSE visible
08 Mar 11.3 05:21:34 10° SW 05:32:11 15° S 05:39:50 10° SSE visible
08 Mar 10.3 20:19:59 10° NNW 20:31:25 33° NE 20:39:40 26° ENE visible
08 Mar 10.2 22:44:28 10° NW 23:34:18 - SE 22:57:02 62° NW visible
09 Mar 11.3 01:51:34 28° SSE 01:51:34 28° SSE 02:00:19 10° SE visible
09 Mar 11.3 04:08:50 18° SW 04:15:53 20° SSW 04:28:12 10° SSE visible
09 Mar 11.1 06:45:48 10° SSW 06:52:48 14° S 06:58:19 10° SSE visible
09 Mar 10.5 19:11:15 10° N 19:18:16 18° NE 19:29:37 10° ENE visible
09 Mar 10.0 21:33:23 10° NW 21:48:25 62° NE 21:50:41 61° ENE visible
